Tracking 31027 objects as of 19-Jul-2025
HD Live streaming from Space Station
objects crossing your sky now

METEOR 2-8 DEB

Track METEOR 2-8 DEB now!
10-day predictions


NORAD ID: 36346
Int'l Code: 1982-025AG
Perigee: 794.8 km
Apogee: 795.4 km
Inclination: 82.5 °
Period: 100.6 minutes
Semi major axis: 7166 km
RCS: 0.0065 m2 (small)
Launch date: March 25, 1982
Source: Commonwealth of Independent States (former USSR) (CIS)
Launch site: PLESETSK MISSILE AND SPACE COMPLEX (PKMTR)

Note: This is SATELLITE DEBRIS
Your satellite tracking list
SL-14 DEB
Track 1 satellite(s)




NASA's NSSDC Master Catalog

Two Line Element Set (TLE):
1 36346U 82025AG  25195.06352581  .00002403  00000-0  90537-3 0  9997
2 36346  82.5391 110.4974 0000424 157.5969 202.5236 14.31127451 86339
Source of the keplerian elements: AFSPC